Location: Unspecified
(51.5147°N, 7.4673°E)
Time: 06:55:09
(UTC+01:00)

A-11 Canister half - Pass Details

Date: 21 February 2026
Orbit: 1524 x 1683 km, 47.3° (Epoch: 14 March)

Event Time Altitude Azimuth Distance (km) Brightness Sun altitude
Rises 23:12:03 0° 286° (WNW) 4,678 12.0 -44.7°
Reaches altitude 10° 23:16:03 10° 271° (W) 3,696 11.2 -45.1°
Enters shadow 23:19:01 17° 254° (WSW) 3,180 10.7 -45.3°
